Ashland, WI

3:48 AM CST on December 06, 2016 (GMT -0600)
Kennedy Memorial

Weather History for KASX - February, 2013

Change the Weather History Date:

Wednesday, February 27, 2013

  Actual Average Record
Temperature  
Mean Temperature 29 °F -  
Max Temperature 30 °F 34 °F 55 °F (2016)
Min Temperature 28 °F 10 °F -20 °F (2014)
Degree Days  
Heating Degree Days 36    
Moisture  
Dew Point 25 °F    
Average Humidity 80    
Maximum Humidity 93    
Minimum Humidity 69    
Precipitation  
Precipitation 0.00 in - - ()
Sea Level Pressure  
Sea Level Pressure 29.98 in    
Wind  
Wind Speed 16 mph (NNE)    
Max Wind Speed 21 mph    
Max Gust Speed 29 mph    
Visibility 10 miles    
Events      
Averages and records for this station are not official NWS values.
T = Trace of Precipitation, MM = Missing Value Source: NWS Daily Summary

Daily Weather History Graph

Daily Weather History Graph

Search for Another Location

Airport or City:

Trip Planner

Search our weather history database for the weather conditions in past years. The results will help you decide how hot, cold, wet, or windy it might be!

Date:

Astronomy

Feb. 27, 2013 Rise Set
Actual Time 6:46 AM CST 5:47 PM CST
Civil Twilight 6:15 AM CST 6:17 PM CST
Nautical Twilight 5:40 AM CST 6:52 PM CST
Astronomical Twilight 5:06 AM CST 7:27 PM CST
Moon 8:20 PM CST (2/27) 7:11 AM CST (2/27)
Length of Visible Light 12h 01m
Length of Day
11h 00m
Waning Gibbous, 96% of the Moon is Illuminated
Feb 27
Waning Gibbous
Mar 4
Last Quarter
Mar 11
New
Mar 19
First Quarter
Mar 27
Full

Hourly Weather History & Observations

Time (CST) Temp. Windchill Dew Point Humidity Pressure Visibility Wind Dir Wind Speed Gust Speed Precip Events Conditions
12:53 AM 30.9 °F 20.7 °F 24.1 °F 76% 29.97 in 10.0 mi NE 13.8 mph - N/A   Overcast
1:53 AM 30.9 °F 19.8 °F 24.1 °F 76% 29.97 in 10.0 mi NE 16.1 mph 24.2 mph N/A   Overcast
2:53 AM 30.9 °F 19.4 °F 25.0 °F 79% 29.96 in 10.0 mi NE 17.3 mph - N/A   Overcast
3:53 AM 30.9 °F 21.2 °F 25.0 °F 79% 29.95 in 10.0 mi NE 12.7 mph - N/A   Overcast
4:53 AM 30.9 °F 21.7 °F 25.0 °F 79% 29.95 in 10.0 mi NE 11.5 mph - N/A   Overcast
5:53 AM 30.0 °F 19.5 °F 26.1 °F 85% 29.94 in 10.0 mi NNE 13.8 mph - N/A   Overcast
6:50 AM 30.2 °F 19.3 °F 26.6 °F 86% 29.91 in 10.0 mi NNE 15.0 mph - N/A   Overcast
6:53 AM 30.0 °F 20.0 °F 26.1 °F 85% 29.95 in 10.0 mi NNE 12.7 mph - N/A   Overcast
7:38 AM 30.2 °F 17.8 °F 24.8 °F 80% 29.91 in 10.0 mi NNE 19.6 mph 25.3 mph N/A   Overcast
7:53 AM 30.0 °F 17.9 °F 25.0 °F 82% 29.95 in 10.0 mi NNE 18.4 mph - N/A   Overcast
8:29 AM 30.2 °F 19.8 °F 24.8 °F 80% 29.91 in 10.0 mi NNE 13.8 mph - N/A   Overcast
8:53 AM 30.9 °F 19.4 °F 26.1 °F 82% 29.95 in 10.0 mi NE 17.3 mph 21.9 mph N/A   Overcast
9:53 AM 30.0 °F 17.9 °F 26.1 °F 85% 29.96 in 10.0 mi NNE 18.4 mph 25.3 mph N/A   Overcast
10:53 AM 30.9 °F 18.7 °F 26.1 °F 82% 29.96 in 10.0 mi NE 19.6 mph 27.6 mph N/A   Overcast
12:29 PM 28.4 °F 15.4 °F 26.6 °F 93% 29.92 in 10.0 mi NNE 19.6 mph 28.8 mph N/A   Overcast
12:53 PM 28.9 °F 16.1 °F 25.0 °F 85% 29.96 in 10.0 mi NNE 19.6 mph - N/A   Overcast
1:53 PM 30.0 °F 17.5 °F 25.0 °F 82% 29.96 in 10.0 mi NNE 19.6 mph - N/A   Overcast
2:53 PM 30.9 °F 18.7 °F 26.1 °F 82% 29.97 in 10.0 mi NNE 19.6 mph 26.5 mph N/A   Overcast
3:19 PM 30.2 °F 17.8 °F 26.6 °F 86% 29.93 in 10.0 mi NNE 19.6 mph 26.5 mph N/A   Overcast
3:53 PM 30.9 °F 19.4 °F 26.1 °F 82% 29.98 in 10.0 mi NNE 17.3 mph 28.8 mph N/A   Overcast
4:53 PM 30.9 °F 19.8 °F 25.0 °F 79% 30.00 in 10.0 mi NNE 16.1 mph - N/A   Overcast
5:53 PM 30.9 °F 20.7 °F 25.0 °F 79% 30.01 in 10.0 mi NNE 13.8 mph - N/A   Overcast
6:51 PM 30.2 °F - 24.8 °F 80% 29.99 in 10.0 mi North - - N/A   Overcast
6:53 PM 30.9 °F - 24.1 °F 76% 30.03 in 10.0 mi North - - N/A   Overcast
7:17 PM 30.2 °F 19.8 °F 24.8 °F 80% 29.99 in 10.0 mi NNE 13.8 mph - N/A   Overcast
7:53 PM 30.9 °F 21.2 °F 21.9 °F 69% 30.03 in 10.0 mi North 12.7 mph - N/A   Overcast
8:17 PM 30.2 °F 19.8 °F 23.0 °F 75% 30.00 in 10.0 mi North 13.8 mph - N/A   Overcast
8:53 PM 30.9 °F 19.1 °F 24.1 °F 76% 30.05 in 10.0 mi NNE 18.4 mph - N/A   Overcast
9:53 PM 30.0 °F 18.3 °F 24.1 °F 79% 30.06 in 10.0 mi NNE 17.3 mph - N/A   Overcast
10:18 PM 30.2 °F 18.9 °F 24.8 °F 80% 30.02 in 10.0 mi NNE 16.1 mph - N/A   Overcast
10:49 PM 30.2 °F 18.1 °F 24.8 °F 80% 30.03 in 10.0 mi NNE 18.4 mph 26.5 mph N/A   Overcast
10:53 PM 30.0 °F 17.2 °F 23.0 °F 75% 30.06 in 10.0 mi NNE 20.7 mph - N/A   Overcast